星链-3848 (STARLINK-3848 )

导读 | 星芒AI

STARLINK-3848 是 SpaceX Starlink 项目中的一颗低轨通信卫星,属于第 11 批组网卫星(Batch 11),于 2021 年 11 月 19 日由猎鹰 9 号火箭成功送入近地轨道。该卫星采用 SpaceX 自主设计的星链卫星平台,配备先进通信设备和离子推进系统,旨在为全球提供高速、低延迟的互联网服务。作为星链星座的一部分,STARLINK-3848 与其他卫星协同工作,支持偏远地区的宽带接入,推动全球互联网覆盖的普及与优化。

基本信息
目录编号:
52362
目录名称:
STARLINK-3848
国际标识:
2022-045AH
轨道中心:
EARTH
卫星名称:
星链-3848
卫星全名:
星链-3848 (STARLINK-3848 )
卫星状态:
在轨 (已飞行1332 天)
发射日期:
2022-04-29 UTC
国别 :
美国 (US)
星等 :
--
轨道信息
数据来源 国际轨道数据 AOE轨道数据
星历时间 2025-12-20T19:54:29+0800
15小时前
查看轨道信息
2025-12-18T05:00:00+0800
3天前
查看轨道信息
半长轴 6917.9km 6917.881km
偏心率 0.0001556 0.0001315
轨道倾角 53.217° 53.212°
近地点辐角 101.791° 86.135°
升交点赤经 184.628° 196.400°
平近点角 258.326° 68.555°
近地点 538.686km 538.836km
远地点 540.84km 540.656km
周期 95.438分钟 95.438分钟
每日圈数 15.088336 15.0884
详细信息
固有亮度:
5
最大亮度:
2.5
卫星平台:
Starlink v1.5
覆盖范围:
全球
运营商:
太空探索技术公司
运营商所在国:
美国
制造商(研发单位):
太空探索技术公司
制造商所在国:
美国
使用方式:
暂无
卫星简介
星链(Starlink)计划是由太空探索技术公司(SpaceX)提出的一个巨型低轨卫星互联网星座项目,计划在2019年至2024年间在太空搭建由约1.2万颗卫星组成的“星链”网络,其中1584颗将部署在地球上空550千米处的近地轨道,并从2020年开始工作。该卫星仍在工作。
2D轨道图
3D轨道图
轨道高度分析图
轨道倾角分析图
轨道综合分析图
查看轨道综合分析图